Probability
0 0 0 0 0 0 0 0 0 0 0 0 0 0 0 0 0 0 0 0 0 0 0 0 0 0 0 0 0 0 0 0 0 0 0 0 0 0 0 0 0 0 0 0
0 0 0 0 0 0 0 0 0 0 0 0 0 0 0 0 0 0 0 0 0 0 0 0 0 0 0 0 0 0 0 0 0 0 0 0 0 0 0 0 0 0 0 0
0 0 0 0 0 0 0 0 0 0 0 0 0 0 0 0 0 0 0 0 0 0 0 0 0 0 0 0 0 0 0 0 0 0 0 0 0 0 0 0 0 0 0 0
0 0 0 0 0 0 0 0 0 0 0 0 0 0 0 0 0 0 0 0 0 0 0 0 0 0 0 0 0 0 0 0 0 0 0 0 0 0 0 0 0 0 0 0
0 0 0 0 0 0 0 0 0 0 0 0 0 0 0 0 0 0 0 0 0 0 0 0 0 0 0 0 0 0 0 0 0 0 0 0 0 0 0 0 0 0 0 0
0 0 0 0 0 0 0 0 0 0 0 0 0 0 0 0 0 0 0 0 0 0 0 0 0 0 0 0 0 0 0 0 0 0 0 0 0 0 0 0 0 0 0 0
0 0 0 0 0 0 0 0 0 0 0 0 0 0 0 0 0 0 0 0 0 0 0 0 0 0 0 0 0 0 0 0 0 0 0 0 0 0 0 0 0 0 0 0
0 0 0 0 0 0 0 0 0 0 0 0 0 0 0 0 0 0 0 0 0 0 0 0 0 0 0 0 0 0 0 0 0 0 0 0 0 0 0 0 0 0 0 0
0 0 0 0 0 0 0 0 0 0 0 0 0 0 0 0 0 0 0 0 0 0 0 0 0 0 0 0 0 0 0 0 0 0 0 0 0 0 0 0 0 0 0 0
0 0 0 0 0 0 0 0 0 0 0 0 0 0 0 0 0 0 0 0 0 0 0 0 0 0 0 0 0 0 0 0 0 0 0 0 0 0 0 0 0 0 0 0
0 0 0 0 0 0 0 0 0 0 0 0 0 0 0 0 0 0 0 0 0 0 0 0 0 0 0 0 0 0 0 0 0 0 0 0 0 0 0 0 0 0 0 0
0 0 0 0 0 0 0 0 0 0 0 0 0 0 0 0 0 0 0 0 0 0 0 0 0 0 0 0 0 0 0 0 0 0 0 0 0 0 0 0 0 0 0 0
0 0 0 0 0 0 0 0 0 0 0 0 0 0 0 0 0 0 0 0 0 0 0 0 0 0 0 0 0 0 0 0 0 0 0 0 0 0 0 0 0 0 0 0
0 0 0 0 0 0 0 0 0 0 0 0 0 0 0 0 0 0 0 0 0 0 0 0 0 0 0 0 0 0 0 0 0 0 0 0 0 0 0 0 0 0 0 0
0 0 0 0 0 0 0 0 0 0 0 0 0 0 0 0 0 0 0 0 0 0 0 0 0 0 0 0 0 0 0 0 0 0 0 0 0 0 0 0 0 0 0 0
0 0 0 0 0 0 0 0 0 0 0 0 0 0 0 0 0 0 0 0 0 0 0 0 0 0 0 0 0 0 0 0 0 0 0 0 0 0 0 0 0 0 0 0
0 0 0 0 0 0 0 0 0 0 0 0 0 0 0 0 0 0 0 0 0 0 0 0 0 0 0 0 0 0 0 0 0 0 0 0 0 0 0 0 0 0 0 0
0 0 0 0 0 0 0 0 0 0 0 0 0 0 0 0 0 0 0 0 0 0 0 0 0 0 0 0 0 0 0 0 0 0 0 0 0 0 0 0 0 0 0 0
0 0 0 0 0 0 0 0 0 0 0 0 0 0 0 0 0 0 0 0 0 0 0 0 0 0 0 0 0 0 0 0 0 0 0 0 0 0 0 0 0 0 0 0
0 0 0 0 0 0 0 0 0 0 0 0 0 0 0 0 0 0 0 0 0 0 0 0 0 0 0 0 0 0 0 0 0 0 0 0 0 0 0 0 0 0 0 0
0 0 0 0 0 0 0 0 0 0 0 0 0 0 0 0 0 0 0 0 0 0 0 0 0 0 0 0 0 0 0 0 0 0 0 0 0 0 0 0 0 0 0 0
0 0 0 0 0 0 0 0 0 0 0 0 0 0 0 0 0 0 0 0 0 0 0 0 0 0 0 0 0 0 0 0 0 0 0 0 0 0 0 0 0 0 0 0
0 0 0 0 0 0 0 0 0 0 0 0 0 0 0 0 0 0 0 0 0 0 0 0 0 0 0 0 0 0 0 0 0 0 0 0 0 0 0 0 0 0 0 0
0 0 0 0 0 0 0 0 0 0 0 0 0 0 0 0 0 0 0 0 0 0 0 0 0 0 0 0 0 0 0 0 0 0 0 0 0 0 0 0 0 0 0 0
0 0 0 0 0 0 0 0 0 0 0 0 0 0 0 0 0 0 0 0 0 0 0 0 0 0 0 0 0 0 0 0 0 0 0 0 0 0 0 0 0 0 0 0
0 0 0 0 0 0 0 0 0 0 0 0 0 0 0 0 0 0 0 0 0 0 0 0 0 0 0 0 0 0 0 0 0 0 0 0 0 0 0 0 0 0 0 0
Height
5658 5659 5660 5661 5660 5661 5661 5662 5665 5668 5669 5668 5670 5674 5679 5681 5683 5686 5689 5692 5694 5697 5698 5699 5701 5702 5704 5706 5708 5710 5712 5714 5716 5717 5718 5720 5721 5723 5724 5726 5727 5729 5730 5732
5649 5651 5652 5651 5651 5652 5653 5653 5656 5659 5659 5658 5660 5664 5669 5671 5674 5677 5680 5682 5685 5687 5688 5690 5692 5694 5696 5698 5700 5702 5704 5706 5707 5709 5710 5711 5713 5715 5717 5718 5719 5720 5722 5723
5640 5643 5642 5642 5643 5643 5644 5645 5647 5648 5649 5649 5650 5653 5658 5662 5664 5667 5670 5672 5675 5677 5679 5681 5683 5685 5687 5689 5691 5693 5695 5697 5699 5700 5702 5703 5705 5707 5709 5710 5711 5712 5713 5715
5631 5633 5633 5633 5634 5634 5635 5637 5637 5638 5639 5640 5642 5640 5649 5652 5654 5657 5660 5663 5665 5668 5670 5672 5674 5676 5678 5680 5682 5683 5685 5687 5689 5691 5693 5695 5697 5699 5700 5701 5702 5704 5705 5706
5623 5624 5624 5625 5626 5625 5626 5628 5628 5629 5629 5630 5632 5631 5638 5642 5644 5648 5651 5654 5656 5659 5661 5663 5664 5666 5668 5670 5672 5674 5676 5678 5680 5682 5684 5686 5688 5690 5691 5692 5694 5695 5696 5698
5615 5616 5616 5617 5618 5618 5618 5619 5619 5619 5620 5621 5625 5624 5627 5632 5635 5639 5642 5645 5647 5650 5651 5653 5655 5657 5659 5661 5663 5665 5667 5668 5670 5672 5674 5677 5679 5680 5682 5683 5685 5686 5687 5689
5607 5608 5608 5609 5610 5611 5611 5612 5612 5611 5611 5613 5617 5616 5620 5625 5627 5630 5633 5635 5638 5640 5642 5645 5646 5649 5651 5652 5654 5656 5658 5660 5662 5663 5665 5667 5669 5671 5673 5674 5676 5677 5678 5679
5598 5601 5602 5601 5602 5603 5604 5605 5606 5605 5605 5607 5608 5609 5614 5617 5619 5621 5623 5626 5628 5631 5633 5635 5638 5640 5642 5644 5646 5648 5650 5652 5653 5655 5656 5658 5660 5661 5663 5665 5666 5668 5669 5670
5590 5593 5594 5594 5594 5596 5597 5598 5599 5599 5599 5600 5601 5603 5607 5609 5611 5613 5615 5617 5619 5622 5625 5627 5629 5631 5633 5635 5637 5639 5641 5643 5645 5646 5647 5649 5650 5652 5653 5655 5656 5658 5659 5660
5583 5584 5586 5587 5587 5589 5590 5591 5593 5592 5592 5593 5595 5597 5600 5602 5604 5606 5608 5609 5611 5614 5616 5618 5620 5622 5624 5626 5628 5630 5632 5634 5636 5637 5638 5640 5641 5642 5644 5646 5647 5648 5649 5650
5576 5576 5578 5579 5580 5581 5583 5585 5585 5586 5586 5587 5588 5593 5594 5596 5597 5599 5601 5602 5604 5606 5608 5610 5612 5613 5615 5617 5619 5621 5623 5625 5627 5628 5629 5631 5632 5633 5635 5636 5638 5639 5639 5640
5568 5569 5570 5572 5573 5573 5575 5577 5579 5580 5581 5580 5581 5588 5588 5589 5590 5592 5594 5595 5596 5598 5600 5602 5603 5605 5607 5608 5610 5613 5615 5616 5618 5619 5620 5622 5623 5624 5625 5627 5628 5629 5630 5630
5561 5562 5562 5564 5567 5567 5567 5569 5571 5572 5572 5573 5574 5581 5581 5582 5582 5584 5586 5587 5589 5590 5592 5593 5595 5596 5598 5600 5602 5604 5605 5607 5608 5610 5611 5612 5614 5615 5616 5617 5618 5619 5619 5620
5554 5555 5556 5557 5558 5558 5560 5562 5563 5563 5564 5565 5568 5572 5574 5574 5575 5576 5577 5579 5581 5583 5584 5585 5587 5588 5590 5591 5593 5595 5596 5597 5599 5600 5601 5603 5604 5605 5606 5607 5608 5609 5609 5609
5547 5548 5548 5549 5550 5550 5551 5554 5555 5556 5557 5558 5561 5563 5566 5566 5567 5568 5569 5571 5573 5574 5576 5577 5578 5580 5581 5583 5584 5585 5587 5588 5589 5591 5592 5593 5594 5595 5596 5597 5598 5598 5599 5599
5540 5540 5541 5541 5542 5542 5543 5546 5547 5548 5550 5551 5553 5555 5558 5558 5558 5560 5562 5563 5565 5566 5567 5568 5569 5571 5572 5574 5575 5576 5577 5578 5580 5581 5582 5583 5584 5585 5586 5587 5587 5588 5589 5589
5533 5533 5533 5534 5535 5533 5536 5539 5540 5542 5543 5544 5545 5549 5549 5550 5551 5552 5554 5556 5557 5558 5559 5560 5561 5562 5563 5564 5565 5566 5567 5569 5570 5571 5572 5573 5574 5575 5576 5576 5577 5578 5578 5579
5526 5526 5525 5526 5527 5526 5532 5532 5533 5534 5536 5537 5538 5540 5541 5542 5543 5544 5546 5547 5548 5549 5550 5551 5552 5553 5553 5554 5555 5557 5558 5559 5560 5561 5562 5563 5564 5565 5566 5566 5567 5568 5568 5569
5520 5519 5519 5519 5518 5519 5524 5525 5525 5526 5528 5530 5531 5532 5533 5533 5535 5537 5538 5538 5540 5540 5541 5542 5543 5544 5545 5545 5546 5547 5548 5549 5550 5551 5552 5553 5554 5555 5556 5557 5557 5558 5558 5559
5513 5513 5513 5512 5512 5513 5518 5519 5518 5520 5521 5524 5524 5525 5525 5526 5527 5531 5530 5530 5531 5532 5533 5533 5534 5535 5536 5536 5537 5538 5539 5539 5540 5541 5542 5543 5544 5545 5546 5547 5547 5548 5548 5548
5506 5506 5506 5506 5505 5507 5511 5511 5511 5513 5516 5516 5516 5517 5518 5518 5520 5522 5522 5523 5523 5523 5524 5525 5525 5526 5527 5527 5528 5529 5529 5530 5531 5532 5533 5534 5535 5535 5536 5537 5537 5538 5538 5538
5498 5499 5499 5499 5499 5503 5504 5504 5505 5506 5507 5508 5508 5509 5510 5511 5511 5512 5513 5514 5515 5515 5516 5516 5517 5518 5518 5518 5519 5520 5520 5521 5521 5522 5523 5524 5525 5526 5526 5527 5528 5528 5528 5528
5492 5492 5492 5493 5496 5496 5496 5497 5497 5498 5499 5500 5501 5502 5503 5503 5504 5505 5506 5507 5507 5507 5508 5508 5508 5509 5509 5509 5510 5511 5511 5512 5512 5513 5514 5515 5515 5516 5517 5517 5518 5518 5518 5518
5485 5484 5484 5485 5487 5488 5489 5489 5490 5491 5492 5493 5494 5495 5495 5496 5497 5498 5498 5499 5499 5499 5499 5499 5499 5500 5500 5501 5501 5501 5502 5502 5503 5503 5504 5505 5505 5506 5507 5507 5507 5508 5508 5508
5477 5477 5477 5478 5481 5481 5482 5482 5483 5484 5485 5486 5486 5487 5488 5488 5489 5490 5491 5491 5491 5491 5491 5491 5490 5491 5491 5492 5492 5492 5493 5493 5494 5494 5495 5495 5496 5496 5497 5497 5497 5497 5498 5497
5471 5471 5471 5472 5473 5473 5474 5475 5475 5476 5478 5479 5479 5480 5480 5481 5481 5482 5483 5483 5483 5483 5482 5482 5482 5482 5482 5482 5482 5483 5483 5484 5485 5485 5485 5486 5486 5487 5487 5487 5488 5487 5487 5487
Wind_Speed
32 33 32 32 34 35 35 36 37 36 36 38 40 40 38 37 38 37 37 36 36 36 36 35 35 35 36 36 36 36 36 36 36 36 37 37 36 36 36 35 35 35 35 35
33 32 32 33 34 35 35 36 37 37 37 39 40 40 39 38 37 37 37 36 36 36 36 36 36 36 36 36 37 37 37 37 37 37 37 37 37 36 36 36 36 36 36 36
33 32 33 34 34 34 35 36 36 37 37 39 40 40 39 38 37 37 37 37 36 36 36 36 36 36 36 36 37 37 37 37 37 37 36 36 36 36 37 37 36 36 36 36
32 32 32 33 33 34 35 34 35 36 37 38 39 40 37 37 37 37 37 37 37 36 36 36 36 36 36 36 37 37 38 39 38 38 38 37 37 37 37 38 37 36 36 35
31 31 31 31 31 33 33 33 34 35 36 37 37 39 35 34 35 36 36 36 36 35 35 35 35 35 35 35 36 37 37 39 39 39 39 38 38 38 38 37 37 37 37 37
30 29 30 29 29 30 30 31 32 33 34 36 33 35 35 32 33 34 34 34 34 34 34 34 34 35 35 35 36 36 37 37 38 38 39 39 39 39 39 38 38 38 38 38
29 28 28 27 27 28 29 29 31 33 33 33 31 34 33 30 31 31 32 32 32 33 33 33 33 34 34 35 35 35 36 36 37 37 38 39 39 39 39 40 39 39 39 39
30 28 27 27 27 28 28 28 29 31 31 30 30 32 31 29 28 29 30 31 32 33 32 32 32 33 34 34 34 35 35 36 36 37 37 38 38 39 40 40 40 39 39 39
30 30 28 28 28 28 28 27 28 29 30 30 29 28 28 27 27 27 28 29 31 32 32 32 32 33 33 33 34 34 35 35 35 36 36 37 38 39 39 39 39 39 39 39
29 30 29 29 29 29 29 28 27 27 28 29 27 26 26 25 25 25 26 26 28 30 31 31 31 32 33 33 34 35 35 35 35 35 36 36 37 38 38 38 38 38 38 38
28 29 29 29 29 28 28 28 27 27 27 27 27 25 24 24 24 24 25 26 27 29 29 30 31 31 32 33 34 35 35 35 36 35 35 36 36 37 38 38 39 39 39 39
28 29 29 29 29 30 29 29 29 29 28 28 28 26 24 24 25 25 25 25 27 28 29 29 30 31 32 33 33 34 35 35 35 36 36 36 36 36 37 39 39 39 40 40
28 30 30 30 29 30 31 31 31 30 30 30 31 27 25 25 25 26 27 27 28 28 29 29 30 31 32 32 33 34 34 34 35 35 36 36 36 37 37 38 39 39 40 40
28 29 30 30 30 30 31 31 32 32 31 31 30 28 25 25 27 27 27 28 29 29 30 30 31 31 31 32 33 34 34 34 35 35 35 36 36 37 38 38 39 40 40 40
28 29 29 29 29 31 32 31 32 31 31 31 29 29 27 27 28 28 27 28 29 30 31 31 31 32 32 33 34 34 34 35 35 36 36 36 37 37 38 38 38 38 39 39
27 28 28 28 28 30 30 30 32 31 31 31 30 29 29 29 28 28 28 29 29 30 30 31 32 32 33 34 34 34 34 35 35 36 36 36 37 37 37 37 37 37 37 38
27 28 28 28 27 29 30 28 29 30 29 30 30 28 28 28 28 28 28 29 30 30 31 32 33 32 33 33 34 34 34 35 35 35 36 36 36 36 36 35 35 36 36 37
27 27 28 29 28 29 28 28 28 29 29 29 28 27 27 27 28 28 28 29 29 30 30 31 32 32 32 32 32 33 34 34 34 35 36 35 35 35 35 35 35 36 36 37
27 27 28 28 29 28 25 25 26 27 28 28 28 27 27 28 29 27 27 28 29 29 30 29 30 30 31 31 31 32 33 34 35 35 35 35 35 35 35 35 35 35 35 36
26 26 27 28 28 27 25 23 24 27 28 27 27 27 27 27 28 27 27 28 28 29 29 29 29 29 29 30 31 31 32 33 34 34 34 35 35 35 35 35 35 35 34 35
25 25 26 26 26 26 24 23 24 26 26 26 26 26 26 26 27 27 28 28 28 28 28 29 29 28 28 29 30 31 31 32 33 34 34 34 34 35 34 34 34 35 35 35
24 25 25 26 26 24 24 24 24 25 26 26 26 25 25 26 26 27 27 28 28 28 28 29 29 29 29 29 30 30 30 31 32 33 33 34 34 35 34 33 33 34 34 35
24 24 25 26 25 25 25 25 24 25 25 26 26 26 26 27 27 27 27 27 27 27 28 29 29 29 29 29 29 29 29 30 30 31 32 33 34 34 33 33 33 34 34 35
24 24 25 25 24 24 25 26 26 25 25 25 26 27 27 27 27 27 27 27 27 27 27 28 29 29 30 30 30 30 30 30 30 30 31 32 32 33 33 34 34 34 34 34
24 25 25 25 24 25 25 26 26 26 25 24 25 25 26 26 27 27 26 27 27 27 28 28 28 29 30 31 31 31 31 31 30 30 30 31 31 32 32 33 33 33 34 34
24 25 25 25 25 26 26 25 26 26 26 25 25 24 24 25 26 26 27 27 27 27 27 27 28 28 29 30 30 31 31 31 30 30 30 31 31 32 31 31 31 31 32 33
Wind_Direction
266 264 263 263 263 264 263 260 258 257 258 258 256 253 250 250 250 251 251 251 251 251 251 251 252 252 252 252 252 252 253 254 254 255 257 258 257 256 256 258 259 259 260 261
266 264 264 263 263 264 264 263 260 258 259 258 257 255 252 250 250 250 251 251 252 252 252 252 252 252 252 252 253 253 253 254 255 257 257 257 256 255 256 258 260 261 261 262
266 265 265 265 264 264 264 264 262 259 259 259 260 257 253 250 249 249 250 250 251 252 253 253 252 252 252 252 252 252 253 254 255 255 256 256 255 255 256 257 258 260 261 263
266 266 266 265 264 262 262 262 261 260 261 260 261 261 254 251 249 249 250 252 252 253 254 255 254 253 254 254 253 253 253 254 255 254 255 256 256 256 257 257 258 260 261 262
267 267 266 265 264 262 263 262 261 260 260 260 260 261 256 253 251 250 251 252 253 253 254 254 254 254 254 254 254 255 254 254 255 255 254 255 255 256 257 258 258 259 260 261
267 266 266 265 263 262 264 264 263 261 261 261 260 261 259 255 253 252 252 252 253 253 253 254 254 253 254 254 255 255 255 254 255 255 255 254 255 255 256 258 258 258 260 261
266 264 264 263 261 261 263 264 264 263 261 263 262 260 259 257 256 254 253 252 252 253 253 253 253 254 254 254 254 255 255 255 255 255 255 255 255 256 257 257 258 258 260 261
266 264 261 260 260 262 260 260 262 264 264 265 263 261 259 258 258 257 254 252 252 252 253 253 253 253 253 254 254 254 255 255 256 256 256 256 256 256 256 257 258 260 260 260
267 265 261 259 259 260 258 259 262 264 264 266 266 262 260 258 258 258 255 252 251 252 253 253 253 253 252 252 253 253 254 255 256 256 257 256 256 255 255 258 258 259 259 260
266 264 261 261 259 258 257 259 261 263 265 268 267 263 262 257 256 257 255 253 252 251 252 253 254 253 252 253 253 253 254 255 256 257 257 257 257 256 256 258 259 260 261 262
266 265 262 261 259 258 256 256 259 261 262 266 267 262 262 260 258 256 254 254 253 252 253 253 254 254 254 254 254 255 255 256 256 257 257 258 259 259 257 258 259 261 263 264
267 266 265 263 260 256 255 255 256 259 260 263 265 261 262 263 259 257 255 255 254 253 254 254 254 254 254 255 255 256 256 257 257 257 258 259 259 260 260 259 260 261 263 265
268 267 268 266 263 259 256 255 255 257 260 262 264 262 263 264 261 259 258 258 257 256 257 256 256 256 256 256 256 257 257 258 259 259 260 260 260 261 261 261 261 262 264 266
267 266 267 268 268 263 257 256 256 256 259 263 263 261 260 262 260 259 259 259 258 258 259 257 257 258 257 257 256 257 258 258 258 259 261 261 261 261 262 262 262 263 265 267
266 267 265 265 265 264 259 256 256 257 260 264 264 261 258 260 259 257 258 258 257 258 258 258 258 257 258 258 258 257 258 258 259 260 261 262 262 262 262 262 263 264 266 267
265 267 266 265 265 264 260 255 254 256 259 262 263 262 262 260 259 257 259 258 258 259 259 259 257 257 258 259 258 258 258 258 259 260 261 262 263 264 264 262 263 265 266 268
268 269 268 268 267 264 258 256 255 255 258 261 263 263 263 262 261 259 258 258 259 261 261 261 261 260 260 259 258 258 258 258 259 260 261 261 262 262 263 262 263 264 266 268
266 269 269 269 268 265 262 258 256 255 256 260 261 262 263 262 260 259 259 258 258 262 263 263 262 262 262 262 261 260 259 259 259 260 261 261 261 261 262 263 263 265 267 268
265 268 269 269 268 266 263 261 256 255 256 259 260 261 263 262 260 258 259 260 261 263 264 264 262 261 262 263 262 262 260 260 261 261 261 261 261 261 262 263 264 266 268 269
264 265 268 268 268 268 268 264 259 257 257 258 261 262 263 263 260 257 259 261 263 263 263 264 265 264 262 263 264 263 262 262 261 260 261 262 262 263 264 264 264 266 268 269
263 265 267 266 267 267 269 267 262 260 260 259 261 262 262 263 262 260 259 262 263 264 264 265 266 265 264 265 266 265 264 263 262 260 260 262 263 264 265 265 266 267 268 269
267 267 266 264 266 267 267 266 264 262 259 258 260 262 263 264 264 262 262 263 264 266 267 267 268 267 266 267 267 266 266 264 263 262 262 263 264 264 264 266 268 269 270 270
266 265 264 264 265 266 264 264 263 262 259 258 260 261 264 265 265 265 264 264 266 267 268 269 269 269 268 268 267 266 267 266 265 265 264 265 265 265 265 267 269 271 272 273
264 263 262 263 262 263 263 261 260 260 260 261 262 263 265 266 266 267 266 266 268 270 272 271 271 269 268 269 269 267 267 267 267 267 266 265 264 266 267 268 270 272 273 274
263 261 263 263 263 261 260 260 259 259 261 264 263 263 264 265 266 266 268 269 270 272 273 273 272 271 270 270 270 268 267 267 268 267 266 265 266 269 270 271 272 273 274 275
264 263 263 264 263 262 261 260 257 259 261 263 262 263 265 267 266 267 269 270 271 273 274 274 273 273 271 269 268 268 268 267 268 268 268 268 268 269 271 271 272 273 275 275